When you browse on this site, cookies collect data to enhance your experience and personalize the content and advertising you see.
Visit our Privacy Policy to learn more. By continuing to use the site, you agree to this use of cookies and data.
  • In Czech Republic
  • List of Countries
  • For 7 days
  • Water Temperature
  • Satellite Maps
  • Weather Map
  • Weather Widgets
  • user-avatar
    Login

    Hourly Weather Fedorovka

    Today, 16 July, Tuesday

    Time Temperature Precipitation Wind Pressure Humidity
    00:00 +14°C° 0.2 mm 1 mps 743 mmHg 92%
    01:00 +14°C° 0.2 mm 1 mps 743 mmHg 94%
    02:00 +14°C° 0 mm 1 mps 743 mmHg 94%
    03:00 +14°C° 0 mm 1 mps 743 mmHg 94%
    04:00 +14°C° 0 mm 1 mps 743 mmHg 94%
    05:00 +15°C° 0 mm 1 mps 743 mmHg 94%
    06:00 +15°C° 0.1 mm 1 mps 743 mmHg 92%
    07:00 +16°C° 0.1 mm 1 mps 743 mmHg 90%
    08:00 +16°C° 0 mm 1 mps 743 mmHg 89%
    09:00 +19°C° 0.7 mm 1 mps 743 mmHg 84%
    10:00 +20°C° 0.7 mm 1 mps 742 mmHg 79%
    11:00 +21°C° 0.7 mm 1 mps 742 mmHg 73%
    12:00 +22°C° 0.3 mm 1 mps 742 mmHg 69%
    13:00 +22°C° 0.3 mm 1 mps 742 mmHg 64%
    14:00 +23°C° 0.3 mm 1 mps 741 mmHg 60%
    15:00 +23°C° 0.3 mm 1 mps 741 mmHg 62%
    16:00 +23°C° 0.3 mm 1 mps 741 mmHg 64%
    17:00 +22°C° 0.3 mm 1 mps 741 mmHg 67%
    18:00 +21°C° 0.1 mm 1 mps 741 mmHg 73%
    19:00 +17°C° 0.1 mm 0 mps 740 mmHg 78%
    20:00 +15°C° 0.1 mm 0 mps 740 mmHg 84%
    21:00 +15°C° 0 mm 0 mps 740 mmHg 86%
    22:00 +15°C° 0 mm 1 mps 740 mmHg 87%
    23:00 +14°C° 0 mm 1 mps 740 mmHg 88%

    Tomorrow, 17 July, Wednesday

    Time Temperature Precipitation Wind Pressure Humidity
    00:00 +14°C° 0 mm 1 mps 740 mmHg 89%
    01:00 +14°C° 0 mm 1 mps 740 mmHg 90%
    02:00 +13°C° 0 mm 1 mps 740 mmHg 91%
    03:00 +14°C° 0.2 mm 1 mps 740 mmHg 91%
    04:00 +14°C° 0.2 mm 1 mps 740 mmHg 92%
    05:00 +14°C° 0.2 mm 1 mps 739 mmHg 92%
    06:00 +15°C° 0.6 mm 1 mps 739 mmHg 91%
    07:00 +16°C° 0.6 mm 1 mps 739 mmHg 90%
    08:00 +18°C° 0.6 mm 1 mps 739 mmHg 89%
    09:00 +18°C° 0.7 mm 2 mps 739 mmHg 86%
    10:00 +19°C° 0.7 mm 3 mps 739 mmHg 83%
    11:00 +20°C° 0.7 mm 3 mps 739 mmHg 80%
    12:00 +20°C° 1.2 mm 4 mps 739 mmHg 78%
    13:00 +20°C° 1.2 mm 4 mps 739 mmHg 77%
    14:00 +20°C° 1.2 mm 4 mps 739 mmHg 76%
    15:00 +20°C° 0.4 mm 4 mps 738 mmHg 75%
    16:00 +20°C° 0.4 mm 4 mps 738 mmHg 74%
    17:00 +20°C° 0.4 mm 3 mps 738 mmHg 73%
    18:00 +18°C° 0.1 mm 3 mps 738 mmHg 78%
    19:00 +17°C° 0.1 mm 3 mps 738 mmHg 84%
    20:00 +15°C° 0.1 mm 2 mps 738 mmHg 89%
    21:00 +14°C° 0 mm 2 mps 738 mmHg 91%
    22:00 +14°C° 0 mm 2 mps 738 mmHg 92%
    23:00 +13°C° 0 mm 2 mps 738 mmHg 94%

    Day after tomorrow, 18 July, Thursday

    Time Temperature Precipitation Wind Pressure Humidity
    00:00 +12°C° 0 mm 2 mps 738 mmHg 94%
    01:00 +12°C° 0 mm 2 mps 739 mmHg 95%
    02:00 +12°C° 0 mm 2 mps 739 mmHg 95%
    03:00 +12°C° 0 mm 2 mps 739 mmHg 95%
    04:00 +12°C° 0 mm 2 mps 739 mmHg 95%
    05:00 +12°C° 0 mm 2 mps 739 mmHg 96%
    06:00 +12°C° 0 mm 3 mps 739 mmHg 92%
    07:00 +14°C° 0 mm 3 mps 739 mmHg 88%
    08:00 +16°C° 0 mm 3 mps 739 mmHg 85%
    09:00 +17°C° 0.1 mm 4 mps 739 mmHg 79%
    10:00 +19°C° 0.1 mm 4 mps 739 mmHg 73%
    11:00 +20°C° 0.1 mm 5 mps 739 mmHg 67%
    12:00 +20°C° 0.3 mm 5 mps 739 mmHg 69%
    13:00 +20°C° 0.3 mm 5 mps 739 mmHg 71%
    14:00 +20°C° 0.3 mm 5 mps 739 mmHg 72%
    15:00 +20°C° 0.3 mm 5 mps 739 mmHg 75%
    16:00 +19°C° 0.3 mm 5 mps 740 mmHg 78%
    17:00 +19°C° 0.3 mm 4 mps 740 mmHg 81%
    18:00 +18°C° 0.3 mm 4 mps 740 mmHg 85%
    19:00 +15°C° 0.3 mm 4 mps 740 mmHg 89%
    20:00 +14°C° 0.3 mm 4 mps 740 mmHg 93%
    21:00 +14°C° 0 mm 4 mps 740 mmHg 94%
    22:00 +14°C° 0 mm 4 mps 740 mmHg 95%
    23:00 +14°C° 0 mm 4 mps 741 mmHg 96%

    19 July, Friday

    Time Temperature Precipitation Wind Pressure Humidity
    00:00 +13°C° 0 mm 4 mps 741 mmHg 97%
    01:00 +13°C° 0 mm 4 mps 741 mmHg 97%
    02:00 +13°C° 0 mm 4 mps 741 mmHg 97%
    03:00 +13°C° 0 mm 4 mps 741 mmHg 97%
    04:00 +13°C° 0 mm 4 mps 741 mmHg 97%
    05:00 +13°C° 0 mm 4 mps 741 mmHg 96%
    06:00 +14°C° 0 mm 4 mps 741 mmHg 94%
    07:00 +14°C° 0 mm 5 mps 742 mmHg 92%
    08:00 +15°C° 0 mm 5 mps 742 mmHg 89%
    09:00 +15°C° 0.1 mm 5 mps 742 mmHg 87%
    10:00 +16°C° 0.1 mm 5 mps 743 mmHg 84%
    11:00 +17°C° 0.1 mm 5 mps 743 mmHg 81%
    12:00 +19°C° 0.1 mm 6 mps 743 mmHg 78%
    13:00 +20°C° 0.1 mm 6 mps 743 mmHg 75%
    14:00 +20°C° 0.1 mm 6 mps 743 mmHg 72%
    15:00 +20°C° 0.2 mm 6 mps 743 mmHg 73%
    16:00 +20°C° 0.2 mm 5 mps 743 mmHg 73%
    17:00 +20°C° 0.2 mm 5 mps 744 mmHg 74%
    18:00 +19°C° 0.1 mm 4 mps 744 mmHg 78%
    19:00 +18°C° 0.1 mm 3 mps 744 mmHg 82%
    20:00 +16°C° 0.1 mm 3 mps 744 mmHg 86%
    21:00 +16°C° 0 mm 3 mps 745 mmHg 87%
    22:00 +14°C° 0 mm 3 mps 745 mmHg 88%
    23:00 +13°C° 0 mm 3 mps 745 mmHg 89%

    20 July, Saturday

    Time Temperature Precipitation Wind Pressure Humidity
    00:00 +13°C° 0 mm 3 mps 745 mmHg 91%
    01:00 +12°C° 0 mm 3 mps 746 mmHg 92%
    02:00 +12°C° 0 mm 3 mps 746 mmHg 93%
    03:00 +12°C° 0 mm 3 mps 746 mmHg 93%
    04:00 +12°C° 0 mm 3 mps 746 mmHg 93%
    05:00 +13°C° 0 mm 2 mps 747 mmHg 93%
    06:00 +14°C° 0 mm 3 mps 747 mmHg 87%
    07:00 +17°C° 0 mm 3 mps 747 mmHg 82%
    08:00 +19°C° 0 mm 3 mps 747 mmHg 77%
    09:00 +20°C° 0 mm 4 mps 747 mmHg 72%
    10:00 +21°C° 0 mm 4 mps 747 mmHg 67%
    11:00 +22°C° 0 mm 4 mps 748 mmHg 62%
    12:00 +23°C° 0 mm 4 mps 748 mmHg 60%
    13:00 +23°C° 0 mm 4 mps 748 mmHg 58%
    14:00 +25°C° 0 mm 4 mps 748 mmHg 56%
    15:00 +25°C° 0 mm 4 mps 748 mmHg 59%
    16:00 +25°C° 0 mm 3 mps 748 mmHg 63%
    17:00 +24°C° 0 mm 3 mps 748 mmHg 66%
    18:00 +22°C° 0 mm 3 mps 748 mmHg 71%
    19:00 +20°C° 0 mm 2 mps 748 mmHg 76%
    20:00 +18°C° 0 mm 2 mps 748 mmHg 81%
    21:00 +17°C° 0 mm 2 mps 748 mmHg 82%
    22:00 +16°C° 0 mm 2 mps 748 mmHg 83%
    23:00 +15°C° 0 mm 2 mps 749 mmHg 84%

    21 July, Sunday

    Time Temperature Precipitation Wind Pressure Humidity
    00:00 +15°C° 0 mm 2 mps 749 mmHg 85%
    01:00 +14°C° 0 mm 1 mps 749 mmHg 87%
    02:00 +14°C° 0 mm 1 mps 749 mmHg 88%
    03:00 +14°C° 0 mm 1 mps 749 mmHg 88%
    04:00 +14°C° 0 mm 1 mps 749 mmHg 88%
    05:00 +14°C° 0 mm 1 mps 749 mmHg 88%
    06:00 +16°C° 0 mm 1 mps 749 mmHg 83%
    07:00 +19°C° 0 mm 1 mps 749 mmHg 78%
    08:00 +20°C° 0 mm 1 mps 749 mmHg 72%
    09:00 +21°C° 0 mm 2 mps 750 mmHg 68%
    10:00 +23°C° 0 mm 2 mps 750 mmHg 63%
    11:00 +24°C° 0 mm 2 mps 750 mmHg 59%
    12:00 +25°C° 0 mm 2 mps 750 mmHg 58%
    13:00 +25°C° 0 mm 3 mps 749 mmHg 57%
    14:00 +25°C° 0 mm 3 mps 749 mmHg 56%
    15:00 +25°C° 0 mm 3 mps 749 mmHg 59%
    16:00 +25°C° 0 mm 3 mps 749 mmHg 62%
    17:00 +25°C° 0 mm 3 mps 749 mmHg 65%
    18:00 +23°C° 0 mm 2 mps 749 mmHg 71%
    19:00 +20°C° 0 mm 2 mps 749 mmHg 76%
    20:00 +18°C° 0 mm 2 mps 750 mmHg 82%
    21:00 +17°C° 0 mm 2 mps 750 mmHg 84%
    22:00 +17°C° 0 mm 2 mps 750 mmHg 86%
    23:00 +16°C° 0 mm 2 mps 750 mmHg 88%
    Show more